Date String (YYYY-MM-DD hh:mm:ss) UTC,Instrument flags,Ambient pressure (hPa),Sample flow (lpm),Bypass flow (lpm),Sample temperature (°C),Ambient temperature (°C),ASC tube jacket temperature (°C),LED temperature (°C),Box temperature (°C),Sample RH (%),Span deviation,Mass concentration (μg/m³),Mass concentration (μg/m³),Mass concentration (μg/m³)
DateTimeUTC,F1_M11,P_M11,Q1_M11,Q2_M11,T1_M11,T2_M11,T3_M11,T4_M11,T5_M11,U1_M11,ZSPAN_M11,X0_M11,X2_M11,X1_M11
2021-10-16 04:00:00,,0832.8,4.99,0.00,27.4,26.5,00.0,36.6,29.1,08.8,0000.0,0003.74,0002.15,0001.53
2021-10-16 04:01:00,,0832.8,4.99,0.00,27.4,26.5,00.0,36.6,29.1,08.8,0000.0,0004.98,0002.23,0001.56
2021-10-16 04:02:00,,0832.8,5.00,0.00,27.4,26.4,00.0,36.6,29.1,08.8,0000.0,0005.13,0002.21,0001.57
2021-10-16 04:03:00,,0832.9,5.00,0.00,27.4,26.4,00.0,36.6,29.1,08.7,0000.0,0005.13,0002.21,0001.58
2021-10-16 04:04:00,,0832.8,5.00,0.00,27.4,26.4,00.0,36.6,29.1,08.6,0000.0,0005.02,0002.20,0001.59
2021-10-16 04:05:00,,0832.8,5.00,0.00,27.4,26.4,00.0,36.6,29.1,08.5,0000.0,0005.04,0002.24,0001.60
2021-10-16 04:06:00,,0832.9,4.98,0.00,27.4,26.4,00.0,36.6,29.1,08.4,0000.0,0004.99,0002.24,0001.61
2021-10-16 04:07:00,,0832.9,5.00,0.00,27.4,26.4,00.0,36.6,29.1,08.4,0000.0,0004.92,0002.24,0001.62
2021-10-16 04:08:00,,0832.9,5.02,0.00,27.4,26.3,00.0,36.5,29.1,08.4,0000.0,0004.87,0002.26,0001.63
2021-10-16 04:09:00,,0832.8,5.00,0.00,27.4,26.3,00.0,36.5,29.1,08.5,0000.0,0006.12,0002.27,0001.63
2021-10-16 04:10:00,,0832.8,4.99,0.00,27.3,26.3,00.0,36.5,29.1,08.6,0000.0,0006.32,0002.29,0001.61
2021-10-16 04:11:00,,0832.8,5.00,0.00,27.3,26.3,00.0,36.5,29.1,08.7,0000.0,0006.25,0002.26,0001.60
2021-10-16 04:12:00,,0832.8,5.00,0.00,27.3,26.3,00.0,36.5,29.0,08.6,0000.0,0005.14,0002.26,0001.60
2021-10-16 04:13:00,,0832.8,5.00,0.00,27.3,26.3,00.0,36.5,29.0,08.6,0000.0,0004.97,0002.25,0001.60
2021-10-16 04:14:00,,0832.8,4.98,0.00,27.3,26.3,00.0,36.5,29.0,08.5,0000.0,0005.26,0002.24,0001.58
2021-10-16 04:15:00,,0832.8,4.99,0.00,27.3,26.2,00.0,36.5,28.9,08.4,0000.0,0005.48,0002.28,0001.58
2021-10-16 04:16:00,,0832.9,5.02,0.00,27.3,26.2,00.0,36.5,28.9,08.4,0000.0,0005.52,0002.27,0001.57
2021-10-16 04:17:00,,0832.9,5.00,0.00,27.3,26.2,00.0,36.5,28.9,08.5,0000.0,0005.47,0002.25,0001.57
2021-10-16 04:18:00,,0833.0,4.99,0.00,27.3,26.2,00.0,36.5,28.9,08.4,0000.0,0005.56,0002.24,0001.56
2021-10-16 04:19:00,,0833.1,5.00,0.00,27.3,26.2,00.0,36.4,28.9,08.4,0000.0,0005.50,0002.22,0001.56
2021-10-16 04:20:00,,0833.1,5.01,0.00,27.2,26.2,00.0,36.4,29.0,08.5,0000.0,0004.23,0002.20,0001.57
2021-10-16 04:21:00,,0833.0,5.00,0.00,27.2,26.2,00.0,36.4,28.9,08.6,0000.0,0003.78,0002.17,0001.57
2021-10-16 04:22:00,,0833.1,5.00,0.00,27.2,26.2,00.0,36.4,29.0,08.6,0000.0,0003.80,0002.19,0001.56
2021-10-16 04:23:00,,0833.0,5.01,0.00,27.2,26.2,00.0,36.4,29.0,08.7,0000.0,0003.89,0002.21,0001.54
2021-10-16 04:24:00,,0833.0,5.00,0.00,27.2,26.2,00.0,36.4,29.0,08.7,0000.0,0003.96,0002.23,0001.55
2021-10-16 04:25:00,,0833.0,4.98,0.00,27.2,26.2,00.0,36.4,29.0,08.9,0000.0,0003.63,0002.22,0001.55
2021-10-16 04:26:00,,0833.0,5.01,0.00,27.2,26.2,00.0,36.4,29.0,09.0,0000.0,0003.83,0002.21,0001.55
2021-10-16 04:27:00,,0833.0,5.00,0.00,27.2,26.2,00.0,36.4,29.0,09.0,0000.0,0004.02,0002.22,0001.56
2021-10-16 04:28:00,,0833.0,5.00,0.00,27.2,26.2,00.0,36.4,29.0,09.0,0000.0,0004.08,0002.24,0001.56
2021-10-16 04:29:00,,0833.0,4.99,0.00,27.2,26.2,00.0,36.4,29.0,08.9,0000.0,0004.10,0002.26,0001.57
2021-10-16 04:30:00,,0833.0,5.00,0.00,27.2,26.2,00.0,36.4,29.0,08.9,0000.0,0004.23,0002.30,0001.57
2021-10-16 04:31:00,,0833.0,5.01,0.00,27.2,26.2,00.0,36.4,29.0,09.0,0000.0,0004.33,0002.32,0001.57
2021-10-16 04:32:00,,0833.1,5.00,0.00,27.2,26.2,00.0,36.4,29.0,09.0,0000.0,0004.43,0002.34,0001.57
2021-10-16 04:33:00,,0833.0,5.00,0.00,27.2,26.2,00.0,36.4,29.0,09.0,0000.0,0004.53,0002.37,0001.57
2021-10-16 04:34:00,,0833.1,5.00,0.00,27.2,26.3,00.0,36.4,29.0,08.9,0000.0,0004.46,0002.32,0001.57
2021-10-16 04:35:00,,0833.1,5.00,0.00,27.2,26.3,00.0,36.4,29.0,08.8,0000.0,0004.55,0002.33,0001.57
2021-10-16 04:36:00,,0833.1,4.99,0.00,27.2,26.3,00.0,36.4,29.0,08.7,0000.0,0004.71,0002.33,0001.57
2021-10-16 04:37:00,,0833.0,5.00,0.00,27.2,26.3,00.0,36.4,29.0,08.6,0000.0,0004.44,0002.33,0001.56
2021-10-16 04:38:00,,0833.1,5.00,0.00,27.3,26.3,00.0,36.4,29.0,08.6,0000.0,0004.09,0002.29,0001.54
2021-10-16 04:39:00,,0833.1,5.00,0.00,27.3,26.3,00.0,36.4,29.0,08.5,0000.0,0004.07,0002.29,0001.55
2021-10-16 04:40:00,,0833.1,5.00,0.00,27.3,26.3,00.0,36.4,29.0,08.5,0000.0,0004.01,0002.28,0001.55
2021-10-16 04:41:00,,0833.1,5.00,0.00,27.3,26.3,00.0,36.4,29.0,08.5,0000.0,0004.18,0002.32,0001.58
2021-10-16 04:42:00,,0833.1,5.01,0.00,27.3,26.3,00.0,36.4,29.0,08.5,0000.0,0005.02,0002.32,0001.60
2021-10-16 04:43:00,,0833.1,5.00,0.00,27.3,26.3,00.0,36.4,29.0,08.5,0000.0,0005.12,0002.34,0001.63
2021-10-16 04:44:00,,0833.1,4.99,0.00,27.3,26.3,00.0,36.4,29.1,08.6,0000.0,0005.04,0002.32,0001.65
2021-10-16 04:45:00,,0833.0,5.02,0.00,27.3,26.3,00.0,36.4,29.1,08.5,0000.0,0005.02,0002.34,0001.68
2021-10-16 04:46:00,,0833.0,4.99,0.00,27.3,26.3,00.0,36.4,29.0,08.4,0000.0,0004.91,0002.35,0001.71
2021-10-16 04:47:00,,0833.1,4.99,0.00,27.3,26.3,00.0,36.4,29.0,08.3,0000.0,0004.95,0002.43,0001.75
2021-10-16 04:48:00,,0833.1,4.99,0.00,27.3,26.3,00.0,36.4,29.1,08.3,0000.0,0005.11,0002.53,0001.81
2021-10-16 04:49:00,,0833.1,5.01,0.00,27.3,26.3,00.0,36.4,29.0,08.3,0000.0,0005.27,0002.57,0001.84
2021-10-16 04:50:00,,0833.1,5.00,0.00,27.3,26.3,00.0,36.4,29.1,08.3,0000.0,0005.25,0002.58,0001.86
2021-10-16 04:51:00,,0833.1,4.99,0.00,27.3,26.3,00.0,36.4,29.1,08.3,0000.0,0005.80,0002.63,0001.89
2021-10-16 04:52:00,,0833.1,5.00,0.00,27.3,26.3,00.0,36.4,29.1,08.3,0000.0,0006.68,0002.59,0001.88
2021-10-16 04:53:00,,0833.1,4.99,0.00,27.3,26.3,00.0,36.4,29.1,08.3,0000.0,0005.85,0002.59,0001.89
2021-10-16 04:54:00,,0833.2,5.00,0.00,27.3,26.3,00.0,36.4,29.0,08.7,0000.0,0006.02,0002.64,0001.90
2021-10-16 04:55:00,,0833.1,5.01,0.00,27.3,26.3,00.0,36.4,29.0,08.6,0000.0,0006.14,0002.66,0001.91
2021-10-16 04:56:00,,0833.1,5.00,0.00,27.3,26.3,00.0,36.4,29.0,08.4,0000.0,0006.15,0002.67,0001.92
2021-10-16 04:57:00,,0833.1,4.99,0.00,27.3,26.3,00.0,36.4,29.0,08.4,0000.0,0006.28,0002.74,0001.94
2021-10-16 04:58:00,,0833.2,5.00,0.00,27.3,26.3,00.0,36.4,29.0,08.6,0000.0,0006.25,0002.74,0001.93
2021-10-16 04:59:00,,0833.2,5.01,0.00,27.3,26.3,00.0,36.4,29.0,08.7,0000.0,0006.19,0002.67,0001.91
